| time (UTC) | temp C | wind direction | speed KPH | gust KPH | rain 1hr cm | rain 24hr cm | rain mn cm | humidity % | barometer mb |
| 20260510103640 | 21 | 0 | 0.0 | 0.0 | 0.00 | 0.00 | 0.00 | 53 | 5007.3 |
| 20260510103140 | 21 | 0 | 0.0 | 0.0 | 0.00 | 0.00 | 0.00 | 54 | 5007.0 |
| 20260510102640 | 20 | 0 | 0.0 | 0.0 | 0.00 | 0.00 | 0.00 | 54 | 5007.3 |
| 20260510102140 | 20 | 0 | 0.0 | 0.0 | 0.00 | 0.00 | 0.00 | 54 | 5007.3 |
| 20260510101640 | 20 | 225 | 0.0 | 0.0 | 0.00 | 0.00 | 0.00 | 55 | 5007.3 |
| 20260510101140 | 20 | 0 | 0.0 | 0.0 | 0.00 | 0.00 | 0.00 | 55 | 5007.5 |
| 20260510100640 | 19 | 0 | 0.0 | 0.0 | 0.00 | 0.00 | 0.00 | 56 | 5007.3 |
| 20260510100140 | 19 | 0 | 0.0 | 0.0 | 0.00 | 0.00 | 0.00 | 56 | 5007.4 |
| 20260510095640 | 19 | 0 | 0.0 | 0.0 | 0.00 | 0.00 | 0.00 | 57 | 5007.5 |
| 20260510095140 | 18 | 0 | 0.0 | 0.0 | 0.00 | 0.00 | 0.00 | 58 | 5007.5 |
| 20260510094640 | 18 | 0 | 0.0 | 0.0 | 0.00 | 0.00 | 0.00 | 58 | 5007.6 |
| 20260510094140 | 18 | 22 | 0.0 | 0.0 | 0.00 | 0.00 | 0.00 | 57 | 5007.7 |
| 20260510093640 | 18 | 202 | 0.0 | 0.0 | 0.00 | 0.00 | 0.00 | 59 | 5007.6 |
| 20260510093141 | 18 | 22 | 0.0 | 0.0 | 0.00 | 0.00 | 0.00 | 59 | 5007.7 |
| 20260510092640 | 18 | 0 | 0.0 | 0.0 | 0.00 | 0.00 | 0.00 | 58 | 5007.8 |
| 20260510092140 | 18 | 22 | 0.0 | 0.0 | 0.00 | 0.00 | 0.00 | 59 | 5007.7 |
| 20260510091640 | 17 | 157 | 0.0 | 0.0 | 0.00 | 0.00 | 0.00 | 59 | 5007.7 |
| 20260510091140 | 17 | 0 | 0.0 | 0.0 | 0.00 | 0.00 | 0.00 | 60 | 5007.9 |
| 20260510090640 | 17 | 22 | 0.0 | 0.0 | 0.00 | 0.00 | 0.00 | 60 | 5008.1 |
| 20260510090140 | 17 | 45 | 0.0 | 0.0 | 0.00 | 0.00 | 0.00 | 61 | 5008.0 |
| 20260510085640 | 17 | 202 | 0.0 | 0.0 | 0.00 | 0.00 | 0.00 | 61 | 5008.1 |
| 20260510085140 | 16 | 45 | 0.0 | 0.0 | 0.00 | 0.00 | 0.00 | 62 | 5007.9 |
| 20260510084640 | 16 | 22 | 0.0 | 0.0 | 0.00 | 0.00 | 0.00 | 62 | 5008.0 |
| 20260510084140 | 16 | 22 | 0.0 | 0.0 | 0.00 | 0.00 | 0.00 | 63 | 5008.0 |
| 20260510083640 | 16 | 0 | 0.0 | 0.0 | 0.00 | 0.00 | 0.00 | 63 | 5008.1 |
| 20260510083140 | 16 | 22 | 0.0 | 0.0 | 0.00 | 0.00 | 0.00 | 64 | 5008.1 |
| 20260510082640 | 15 | 22 | 0.0 | 0.0 | 0.00 | 0.00 | 0.00 | 64 | 5008.0 |
| 20260510082140 | 15 | 0 | 0.0 | 0.0 | 0.00 | 0.00 | 0.00 | 64 | 5008.1 |
| 20260510081640 | 15 | 0 | 0.0 | 0.0 | 0.00 | 0.00 | 0.00 | 65 | 5008.3 |
| 20260510081140 | 15 | 0 | 0.0 | 0.0 | 0.00 | 0.00 | 0.00 | 65 | 5008.2 |
| 20260510080640 | 15 | 22 | 0.0 | 0.0 | 0.00 | 0.00 | 0.00 | 65 | 5008.2 |
| 20260510080141 | 15 | 22 | 0.0 | 0.0 | 0.00 | 0.00 | 0.00 | 65 | 5008.2 |
| 20260510075641 | 15 | 0 | 0.0 | 0.0 | 0.00 | 0.00 | 0.00 | 65 | 5008.2 |
| 20260510075141 | 15 | 0 | 0.0 | 0.0 | 0.00 | 0.00 | 0.00 | 65 | 5008.1 |
| 20260510074641 | 15 | 202 | 0.0 | 0.0 | 0.00 | 0.00 | 0.00 | 65 | 5007.9 |
| 20260510074141 | 15 | 0 | 0.0 | 0.0 | 0.00 | 0.00 | 0.00 | 65 | 5007.9 |
| 20260510073641 | 15 | 0 | 0.0 | 0.0 | 0.00 | 0.00 | 0.00 | 65 | 5008.1 |
| 20260510073141 | 15 | 22 | 0.0 | 0.0 | 0.00 | 0.00 | 0.00 | 66 | 5008.1 |
| 20260510072641 | 15 | 315 | 0.0 | 0.0 | 0.00 | 0.00 | 0.00 | 66 | 5008.2 |
| 20260510072141 | 14 | 22 | 0.0 | 0.0 | 0.00 | 0.00 | 0.00 | 66 | 5008.3 |
| 20260510071641 | 14 | 0 | 0.0 | 0.0 | 0.00 | 0.00 | 0.00 | 67 | 5008.4 |
| 20260510071141 | 14 | 22 | 0.0 | 0.0 | 0.00 | 0.00 | 0.00 | 67 | 5008.5 |
| 20260510070641 | 13 | 0 | 0.0 | 0.0 | 0.00 | 0.00 | 0.00 | 68 | 5008.5 |
| 20260510070141 | 13 | 0 | 0.0 | 0.0 | 0.00 | 0.00 | 0.00 | 68 | 5008.5 |
| 20260510065641 | 13 | 0 | 0.0 | 0.0 | 0.00 | 0.00 | 0.00 | 69 | 5008.6 |
| 20260510065145 | 13 | 22 | 0.0 | 0.0 | 0.00 | 0.00 | 0.00 | 69 | 5008.5 |
| 20260510065141 | 13 | 22 | 0.0 | 0.0 | 0.00 | 0.00 | 0.00 | 69 | 5008.5 |
| 20260510064641 | 13 | 22 | 0.0 | 0.0 | 0.00 | 0.00 | 0.00 | 69 | 5008.5 |
| 20260510064141 | 13 | 292 | 0.0 | 0.0 | 0.00 | 0.00 | 0.00 | 69 | 5008.6 |
| 20260510063641 | 13 | 22 | 0.0 | 0.0 | 0.00 | 0.00 | 0.00 | 70 | 5008.4 |
| 20260510063141 | 13 | 22 | 0.0 | 0.0 | 0.00 | 0.00 | 0.00 | 70 | 5008.4 |
| 20260510062641 | 12 | 292 | 0.0 | 0.0 | 0.00 | 0.00 | 0.00 | 70 | 5008.4 |
| 20260510062145 | 12 | 0 | 0.0 | 0.0 | 0.00 | 0.00 | 0.00 | 70 | 5008.4 |
| 20260510062141 | 12 | 0 | 0.0 | 0.0 | 0.00 | 0.00 | 0.00 | 70 | 5008.4 |
| 20260510061641 | 12 | 337 | 0.0 | 0.0 | 0.00 | 0.00 | 0.00 | 70 | 5008.5 |
| 20260510061141 | 12 | 0 | 0.0 | 0.0 | 0.00 | 0.00 | 0.00 | 70 | 5008.5 |
| 20260510060641 | 12 | 0 | 0.0 | 0.0 | 0.00 | 0.00 | 0.00 | 70 | 5008.5 |
| 20260510060141 | 12 | 45 | 0.0 | 0.0 | 0.00 | 0.00 | 0.00 | 70 | 5008.5 |
| 20260510055641 | 12 | 0 | 0.0 | 0.0 | 0.00 | 0.00 | 0.00 | 71 | 5008.5 |
| 20260510055145 | 12 | 337 | 0.0 | 0.0 | 0.00 | 0.00 | 0.00 | 71 | 5008.6 |
| 20260510055141 | 12 | 337 | 0.0 | 0.0 | 0.00 | 0.00 | 0.00 | 71 | 5008.6 |
| 20260510054641 | 12 | 0 | 0.0 | 0.0 | 0.00 | 0.00 | 0.00 | 71 | 5008.6 |
| 20260510054141 | 12 | 337 | 0.0 | 0.0 | 0.00 | 0.00 | 0.00 | 71 | 5008.7 |
| 20260510053646 | 12 | 0 | 0.0 | 0.0 | 0.00 | 0.00 | 0.00 | 71 | 5008.7 |
| 20260510053641 | 12 | 0 | 0.0 | 0.0 | 0.00 | 0.00 | 0.00 | 71 | 5008.7 |
| 20260510053141 | 11 | 0 | 0.0 | 0.0 | 0.00 | 0.00 | 0.00 | 71 | 5008.5 |
| 20260510052641 | 11 | 22 | 0.0 | 0.0 | 0.00 | 0.00 | 0.00 | 71 | 5008.5 |
| 20260510052141 | 11 | 67 | 0.0 | 0.0 | 0.00 | 0.00 | 0.00 | 72 | 5008.6 |
| 20260510051641 | 11 | 337 | 0.0 | 0.0 | 0.00 | 0.00 | 0.00 | 72 | 5008.5 |
| 20260510051141 | 11 | 22 | 0.0 | 0.0 | 0.00 | 0.00 | 0.00 | 72 | 5008.5 |
| 20260510050641 | 11 | 0 | 0.0 | 0.0 | 0.00 | 0.00 | 0.00 | 72 | 5008.5 |
| 20260510050141 | 11 | 22 | 0.0 | 0.0 | 0.00 | 0.00 | 0.00 | 73 | 5008.5 |
| 20260510045641 | 11 | 315 | 0.0 | 0.0 | 0.00 | 0.00 | 0.00 | 73 | 5008.5 |
| 20260510045141 | 11 | 45 | 0.0 | 0.0 | 0.00 | 0.00 | 0.00 | 73 | 5008.6 |
| 20260510044641 | 11 | 337 | 0.0 | 0.0 | 0.00 | 0.00 | 0.00 | 73 | 5008.5 |
| 20260510044141 | 11 | 22 | 0.0 | 0.0 | 0.00 | 0.00 | 0.00 | 73 | 5008.7 |
| 20260510043646 | 11 | 45 | 0.0 | 0.0 | 0.00 | 0.00 | 0.00 | 73 | 5008.6 |
| 20260510043641 | 11 | 45 | 0.0 | 0.0 | 0.00 | 0.00 | 0.00 | 73 | 5008.6 |
| 20260510043141 | 11 | 0 | 0.0 | 0.0 | 0.00 | 0.00 | 0.00 | 73 | 5008.6 |
| 20260510042641 | 11 | 22 | 0.0 | 0.0 | 0.00 | 0.00 | 0.00 | 74 | 5008.7 |
| 20260510042141 | 11 | 90 | 0.0 | 0.0 | 0.00 | 0.00 | 0.00 | 74 | 5008.5 |
| 20260510041641 | 11 | 270 | 0.0 | 0.0 | 0.00 | 0.00 | 0.00 | 74 | 5008.6 |
| 20260510041141 | 11 | 180 | 0.0 | 0.0 | 0.00 | 0.00 | 0.00 | 73 | 5008.6 |
| 20260510040641 | 11 | 22 | 0.0 | 0.0 | 0.00 | 0.00 | 0.00 | 73 | 5008.8 |
| 20260510040141 | 11 | 45 | 0.0 | 0.0 | 0.00 | 0.00 | 0.00 | 73 | 5008.6 |
| 20260510035641 | 11 | 0 | 0.0 | 0.0 | 0.00 | 0.00 | 0.00 | 73 | 5008.6 |
| 20260510035141 | 11 | 0 | 0.0 | 0.0 | 0.00 | 0.00 | 0.00 | 73 | 5008.8 |
| 20260510034641 | 11 | 45 | 0.0 | 0.0 | 0.00 | 0.00 | 0.00 | 72 | 5008.8 |
| 20260510034141 | 11 | 22 | 0.0 | 0.0 | 0.00 | 0.00 | 0.00 | 72 | 5008.9 |
| 20260510033641 | 11 | 292 | 0.0 | 0.0 | 0.00 | 0.00 | 0.00 | 72 | 5008.9 |
| 20260510033141 | 11 | 135 | 0.0 | 0.0 | 0.00 | 0.00 | 0.00 | 71 | 5009.0 |
| 20260510032641 | 12 | 22 | 0.0 | 0.0 | 0.00 | 0.00 | 0.00 | 71 | 5008.9 |
| 20260510032141 | 12 | 45 | 0.0 | 0.0 | 0.00 | 0.00 | 0.00 | 71 | 5008.8 |
| 20260510031641 | 12 | 45 | 0.0 | 0.0 | 0.00 | 0.00 | 0.00 | 71 | 5008.9 |
| 20260510031141 | 12 | 45 | 0.0 | 0.0 | 0.00 | 0.00 | 0.00 | 71 | 5008.9 |
| 20260510030641 | 12 | 0 | 0.0 | 0.0 | 0.00 | 0.00 | 0.00 | 71 | 5009.2 |
| 20260510030141 | 12 | 45 | 0.0 | 0.0 | 0.00 | 0.00 | 0.00 | 71 | 5009.0 |
| 20260510025641 | 12 | 45 | 0.0 | 0.0 | 0.00 | 0.00 | 0.00 | 71 | 5009.2 |
| 20260510025146 | 12 | 0 | 0.0 | 0.0 | 0.00 | 0.00 | 0.00 | 70 | 5009.2 |
| 20260510025141 | 12 | 0 | 0.0 | 0.0 | 0.00 | 0.00 | 0.00 | 70 | 5009.2 |
| 20260510024641 | 12 | 337 | 0.0 | 0.0 | 0.00 | 0.00 | 0.00 | 70 | 5009.2 |
| 20260510024141 | 12 | 337 | 0.0 | 0.0 | 0.00 | 0.00 | 0.00 | 70 | 5009.2 |
| 20260510023646 | 12 | 0 | 0.0 | 0.0 | 0.00 | 0.00 | 0.00 | 70 | 5009.2 |
| 20260510023641 | 12 | 0 | 0.0 | 0.0 | 0.00 | 0.00 | 0.00 | 70 | 5009.2 |
| 20260510023141 | 12 | 292 | 0.0 | 0.0 | 0.00 | 0.00 | 0.00 | 69 | 5009.4 |
| 20260510022641 | 12 | 22 | 0.0 | 0.0 | 0.00 | 0.00 | 0.00 | 69 | 5009.4 |
| 20260510022141 | 12 | 0 | 0.0 | 0.0 | 0.00 | 0.00 | 0.00 | 69 | 5009.4 |
| 20260510021641 | 12 | 337 | 0.0 | 0.0 | 0.00 | 0.00 | 0.00 | 69 | 5009.5 |
| 20260510021141 | 12 | 337 | 0.0 | 0.0 | 0.00 | 0.00 | 0.00 | 68 | 5009.5 |
| 20260510020641 | 12 | 0 | 0.0 | 0.0 | 0.00 | 0.00 | 0.00 | 68 | 5009.4 |
| 20260510020141 | 12 | 0 | 0.0 | 0.0 | 0.00 | 0.00 | 0.00 | 67 | 5009.5 |
| 20260510015641 | 12 | 22 | 0.0 | 0.0 | 0.00 | 0.00 | 0.00 | 67 | 5009.4 |
| 20260510015141 | 12 | 22 | 0.0 | 0.0 | 0.00 | 0.00 | 0.00 | 66 | 5009.7 |
| 20260510014641 | 13 | 0 | 0.0 | 0.0 | 0.00 | 0.00 | 0.00 | 66 | 5009.7 |
| 20260510014141 | 13 | 0 | 0.0 | 0.0 | 0.00 | 0.00 | 0.00 | 66 | 5009.8 |
| 20260510013646 | 13 | 45 | 0.0 | 0.0 | 0.00 | 0.00 | 0.00 | 66 | 5009.8 |
| 20260510013641 | 13 | 45 | 0.0 | 0.0 | 0.00 | 0.00 | 0.00 | 66 | 5009.8 |
| 20260510013141 | 13 | 22 | 0.0 | 0.0 | 0.00 | 0.00 | 0.00 | 65 | 5009.6 |
| 20260510012641 | 13 | 0 | 0.0 | 0.0 | 0.00 | 0.00 | 0.00 | 65 | 5009.5 |
| 20260510012141 | 13 | 0 | 0.0 | 0.0 | 0.00 | 0.00 | 0.00 | 65 | 5009.7 |
| 20260510011641 | 13 | 22 | 0.0 | 0.0 | 0.00 | 0.00 | 0.00 | 65 | 5009.7 |
| 20260510011141 | 13 | 0 | 0.0 | 0.0 | 0.00 | 0.00 | 0.00 | 65 | 5009.8 |
| 20260510010656 | 13 | 45 | 0.0 | 0.0 | 0.00 | 0.00 | 0.00 | 64 | 5009.8 |
| 20260510010646 | 13 | 45 | 0.0 | 0.0 | 0.00 | 0.00 | 0.00 | 64 | 5009.8 |
| 20260510010641 | 13 | 45 | 0.0 | 0.0 | 0.00 | 0.00 | 0.00 | 64 | 5009.8 |
| 20260510010141 | 13 | 22 | 0.0 | 0.0 | 0.00 | 0.00 | 0.00 | 64 | 5009.8 |
| 20260510005641 | 13 | 22 | 0.0 | 0.0 | 0.00 | 0.00 | 0.00 | 63 | 5009.8 |
| 20260510005148 | 13 | 22 | 0.0 | 0.0 | 0.00 | 0.00 | 0.00 | 63 | 5009.9 |
| 20260510005141 | 13 | 22 | 0.0 | 0.0 | 0.00 | 0.00 | 0.00 | 63 | 5009.9 |
| 20260510004641 | 14 | 225 | 0.0 | 0.0 | 0.00 | 0.00 | 0.00 | 62 | 5009.9 |
| 20260510004141 | 14 | 0 | 0.0 | 0.0 | 0.00 | 0.00 | 0.00 | 61 | 5010.0 |
| 20260510003646 | 14 | 22 | 0.0 | 0.0 | 0.00 | 0.00 | 0.00 | 60 | 5009.9 |
| 20260510003641 | 14 | 22 | 0.0 | 0.0 | 0.00 | 0.00 | 0.00 | 60 | 5009.9 |
| 20260510003141 | 15 | 22 | 0.0 | 0.0 | 0.00 | 0.00 | 0.00 | 60 | 5010.1 |
| 20260510002641 | 15 | 0 | 0.0 | 0.0 | 0.00 | 0.00 | 0.00 | 59 | 5010.1 |
| 20260510002145 | 15 | 0 | 0.0 | 0.0 | 0.00 | 0.00 | 0.00 | 59 | 5010.1 |
| 20260510002141 | 15 | 0 | 0.0 | 0.0 | 0.00 | 0.00 | 0.00 | 59 | 5010.1 |
| 20260510001641 | 15 | 22 | 0.0 | 0.0 | 0.00 | 0.00 | 0.00 | 58 | 5010.2 |
| 20260510001141 | 15 | 45 | 0.0 | 0.0 | 0.00 | 0.00 | 0.00 | 57 | 5010.2 |
| 20260510000641 | 15 | 22 | 0.0 | 0.0 | 0.00 | 0.00 | 0.00 | 57 | 5010.2 |
| 20260510000141 | 15 | 67 | 0.0 | 0.0 | 0.00 | 0.00 | 0.00 | 57 | 5010.2 |
| 20260509235641 | 15 | 45 | 0.0 | 0.0 | 0.00 | 0.00 | 0.00 | 57 | 5010.3 |
| 20260509235141 | 15 | 0 | 0.0 | 0.0 | 0.00 | 0.00 | 0.00 | 57 | 5010.2 |
| 20260509234641 | 15 | 22 | 0.0 | 0.0 | 0.00 | 0.00 | 0.00 | 56 | 5010.5 |
| 20260509234141 | 15 | 67 | 0.0 | 0.0 | 0.00 | 0.00 | 0.00 | 56 | 5010.5 |
| 20260509233756 | 15 | 22 | 0.0 | 0.0 | 0.00 | 0.00 | 0.00 | 56 | 5010.6 |
| 20260509233647 | 15 | 22 | 0.0 | 0.0 | 0.00 | 0.00 | 0.00 | 56 | 5010.6 |
| 20260509233641 | 15 | 22 | 0.0 | 0.0 | 0.00 | 0.00 | 0.00 | 56 | 5010.6 |
| 20260509233141 | 15 | 22 | 0.0 | 0.0 | 0.00 | 0.00 | 0.00 | 56 | 5010.5 |
| 20260509232641 | 15 | 22 | 0.0 | 0.0 | 0.00 | 0.00 | 0.00 | 56 | 5010.5 |
| 20260509232141 | 15 | 45 | 0.0 | 0.0 | 0.00 | 0.00 | 0.00 | 56 | 5010.5 |
| 20260509231641 | 15 | 45 | 0.0 | 0.0 | 0.00 | 0.00 | 0.00 | 56 | 5010.6 |
| 20260509231141 | 15 | 22 | 0.0 | 0.0 | 0.00 | 0.00 | 0.00 | 56 | 5010.5 |
| 20260509230646 | 15 | 22 | 0.0 | 0.0 | 0.00 | 0.00 | 0.00 | 56 | 5010.6 |
| 20260509230641 | 15 | 22 | 0.0 | 0.0 | 0.00 | 0.00 | 0.00 | 56 | 5010.6 |
| 20260509230141 | 15 | 22 | 0.0 | 0.0 | 0.00 | 0.00 | 0.00 | 55 | 5010.6 |
| 20260509225641 | 16 | 45 | 0.0 | 0.0 | 0.00 | 0.00 | 0.00 | 55 | 5010.7 |
| 20260509225141 | 16 | 45 | 0.0 | 0.0 | 0.00 | 0.00 | 0.00 | 55 | 5010.6 |
| 20260509224641 | 16 | 45 | 0.0 | 0.0 | 0.00 | 0.00 | 0.00 | 55 | 5010.6 |
| 20260509224141 | 16 | 45 | 0.0 | 0.0 | 0.00 | 0.00 | 0.00 | 54 | 5010.6 |
| 20260509223641 | 16 | 0 | 0.0 | 0.0 | 0.00 | 0.00 | 0.00 | 54 | 5010.7 |
| 20260509223141 | 16 | 22 | 0.0 | 0.0 | 0.00 | 0.00 | 0.00 | 54 | 5010.6 |
| 20260509222641 | 16 | 292 | 0.0 | 0.0 | 0.00 | 0.00 | 0.00 | 54 | 5010.8 |
| 20260509222141 | 16 | 0 | 0.0 | 0.0 | 0.00 | 0.00 | 0.00 | 54 | 5010.8 |
| 20260509221641 | 16 | 45 | 0.0 | 0.0 | 0.00 | 0.00 | 0.00 | 54 | 5010.9 |
| 20260509221141 | 16 | 112 | 0.0 | 0.0 | 0.00 | 0.00 | 0.00 | 53 | 5010.9 |
| 20260509220642 | 16 | 22 | 0.0 | 0.0 | 0.00 | 0.00 | 0.00 | 53 | 5010.9 |
| 20260509220142 | 16 | 22 | 0.0 | 0.0 | 0.00 | 0.00 | 0.00 | 53 | 5011.1 |
| 20260509215641 | 16 | 22 | 0.0 | 0.0 | 0.00 | 0.00 | 0.00 | 53 | 5010.9 |
| 20260509215141 | 16 | 0 | 0.0 | 0.0 | 0.00 | 0.00 | 0.00 | 53 | 5011.1 |
| 20260509214641 | 16 | 22 | 0.0 | 0.0 | 0.00 | 0.00 | 0.00 | 53 | 5011.1 |
| 20260509214141 | 16 | 22 | 0.0 | 0.0 | 0.00 | 0.00 | 0.00 | 53 | 5011.3 |
| 20260509213642 | 16 | 45 | 0.0 | 0.0 | 0.00 | 0.00 | 0.00 | 53 | 5011.2 |
| 20260509213142 | 17 | 0 | 0.0 | 0.0 | 0.00 | 0.00 | 0.00 | 53 | 5011.3 |
| 20260509212642 | 17 | 45 | 0.0 | 0.0 | 0.00 | 0.00 | 0.00 | 52 | 5011.2 |
| 20260509212142 | 17 | 90 | 0.0 | 0.0 | 0.00 | 0.00 | 0.00 | 52 | 5011.2 |
| 20260509211642 | 17 | 45 | 0.0 | 0.0 | 0.00 | 0.00 | 0.00 | 52 | 5011.2 |
| 20260509211142 | 17 | 45 | 0.0 | 0.0 | 0.00 | 0.00 | 0.00 | 52 | 5011.4 |
| 20260509210642 | 17 | 45 | 0.0 | 0.0 | 0.00 | 0.00 | 0.00 | 51 | 5011.3 |
| 20260509210142 | 17 | 67 | 0.0 | 0.0 | 0.00 | 0.00 | 0.00 | 51 | 5011.5 |
| 20260509205642 | 17 | 67 | 0.0 | 0.0 | 0.00 | 0.00 | 0.00 | 51 | 5011.4 |
| 20260509205142 | 17 | 67 | 0.0 | 0.0 | 0.00 | 0.00 | 0.00 | 50 | 5011.4 |
| 20260509204642 | 17 | 67 | 0.0 | 0.0 | 0.00 | 0.00 | 0.00 | 50 | 5011.4 |
| 20260509204142 | 17 | 67 | 0.0 | 0.0 | 0.00 | 0.00 | 0.00 | 50 | 5011.6 |
| 20260509203642 | 17 | 45 | 0.0 | 0.0 | 0.00 | 0.00 | 0.00 | 49 | 5011.4 |
| 20260509203142 | 18 | 0 | 0.0 | 0.0 | 0.00 | 0.00 | 0.00 | 49 | 5011.5 |
| 20260509202642 | 18 | 45 | 0.0 | 0.0 | 0.00 | 0.00 | 0.00 | 48 | 5011.6 |
| 20260509202142 | 18 | 67 | 0.0 | 0.0 | 0.00 | 0.00 | 0.00 | 48 | 5011.6 |
| 20260509201642 | 18 | 45 | 0.0 | 0.0 | 0.00 | 0.00 | 0.00 | 47 | 5011.5 |
| 20260509201142 | 18 | 67 | 0.0 | 0.0 | 0.00 | 0.00 | 0.00 | 47 | 5011.4 |
| 20260509200646 | 18 | 45 | 0.0 | 0.0 | 0.00 | 0.00 | 0.00 | 47 | 5011.3 |
| 20260509200642 | 18 | 45 | 0.0 | 0.0 | 0.00 | 0.00 | 0.00 | 47 | 5011.3 |
| 20260509200142 | 18 | 22 | 0.0 | 0.0 | 0.00 | 0.00 | 0.00 | 46 | 5011.3 |
| 20260509195642 | 18 | 22 | 0.0 | 0.0 | 0.00 | 0.00 | 0.00 | 46 | 5011.4 |
| 20260509195142 | 18 | 45 | 0.0 | 0.0 | 0.00 | 0.00 | 0.00 | 45 | 5011.4 |
| 20260509194642 | 19 | 22 | 0.0 | 0.0 | 0.00 | 0.00 | 0.00 | 44 | 5011.5 |
| 20260509194142 | 19 | 337 | 0.0 | 0.0 | 0.00 | 0.00 | 0.00 | 44 | 5011.4 |
| 20260509193757 | 19 | 22 | 0.0 | 0.0 | 0.00 | 0.00 | 0.00 | 44 | 5011.4 |
| 20260509193642 | 19 | 22 | 0.0 | 0.0 | 0.00 | 0.00 | 0.00 | 44 | 5011.4 |
| 20260509193142 | 19 | 22 | 0.0 | 0.0 | 0.00 | 0.00 | 0.00 | 44 | 5011.3 |
| 20260509192642 | 19 | 0 | 0.0 | 0.0 | 0.00 | 0.00 | 0.00 | 43 | 5011.3 |
| 20260509192142 | 20 | 22 | 0.0 | 0.0 | 0.00 | 0.00 | 0.00 | 42 | 5011.3 |
| 20260509191642 | 20 | 0 | 0.0 | 0.0 | 0.00 | 0.00 | 0.00 | 42 | 5011.2 |
| 20260509191142 | 20 | 0 | 0.0 | 0.0 | 0.00 | 0.00 | 0.00 | 41 | 5011.3 |
| 20260509190642 | 20 | 22 | 0.0 | 0.0 | 0.00 | 0.00 | 0.00 | 40 | 5011.4 |
| 20260509190142 | 20 | 0 | 0.0 | 0.0 | 0.00 | 0.00 | 0.00 | 40 | 5011.3 |
| 20260509185642 | 21 | 0 | 0.0 | 0.0 | 0.00 | 0.00 | 0.00 | 38 | 5011.3 |
| 20260509185142 | 21 | 22 | 0.0 | 0.0 | 0.00 | 0.00 | 0.00 | 36 | 5011.3 |
| 20260509184642 | 22 | 22 | 0.0 | 0.0 | 0.00 | 0.00 | 0.00 | 34 | 5011.4 |
| 20260509184142 | 22 | 22 | 0.0 | 0.0 | 0.00 | 0.00 | 0.00 | 33 | 5011.3 |
| 20260509183642 | 23 | 0 | 0.0 | 0.0 | 0.00 | 0.00 | 0.00 | 32 | 5011.2 |
| 20260509183142 | 24 | 0 | 0.0 | 0.0 | 0.00 | 0.00 | 0.00 | 30 | 5011.1 |
| 20260509182642 | 25 | 67 | 0.0 | 0.0 | 0.00 | 0.00 | 0.00 | 28 | 5011.1 |
| 20260509182142 | 26 | 67 | 0.0 | 0.0 | 0.00 | 0.00 | 0.00 | 27 | 5011.1 |
| 20260509181642 | 27 | 67 | 0.0 | 0.0 | 0.00 | 0.00 | 0.00 | 26 | 5011.2 |
| 20260509181142 | 28 | 67 | 0.0 | 0.0 | 0.00 | 0.00 | 0.00 | 25 | 5011.2 |
| 20260509180642 | 29 | 67 | 0.0 | 0.0 | 0.00 | 0.00 | 0.00 | 25 | 5011.2 |
| 20260509180142 | 30 | 67 | 0.0 | 0.0 | 0.00 | 0.00 | 0.00 | 24 | 5011.0 |
| 20260509175642 | 32 | 112 | 0.0 | 0.0 | 0.00 | 0.00 | 0.00 | 23 | 5011.2 |
| 20260509175142 | 32 | 112 | 0.0 | 0.0 | 0.00 | 0.00 | 0.00 | 22 | 5011.1 |
| 20260509174642 | 33 | 112 | 0.0 | 0.0 | 0.00 | 0.00 | 0.00 | 22 | 5010.9 |
| 20260509174142 | 34 | 112 | 0.0 | 0.0 | 0.00 | 0.00 | 0.00 | 21 | 5010.9 |
| 20260509173642 | 35 | 112 | 0.0 | 0.0 | 0.00 | 0.00 | 0.00 | 21 | 5011.0 |
| 20260509173142 | 35 | 112 | 0.0 | 0.0 | 0.00 | 0.00 | 0.00 | 20 | 5010.8 |
| 20260509172642 | 36 | 112 | 0.0 | 0.0 | 0.00 | 0.00 | 0.00 | 20 | 5011.0 |
| 20260509172142 | 35 | 112 | 0.0 | 0.0 | 0.00 | 0.00 | 0.00 | 20 | 5011.2 |
| 20260509171642 | 35 | 112 | 0.0 | 0.0 | 0.00 | 0.00 | 0.00 | 20 | 5011.0 |
| 20260509171142 | 36 | 90 | 0.0 | 0.0 | 0.00 | 0.00 | 0.00 | 20 | 5010.9 |
| 20260509170646 | 36 | 90 | 0.0 | 0.0 | 0.00 | 0.00 | 0.00 | 19 | 5011.0 |
| 20260509170642 | 36 | 90 | 0.0 | 0.0 | 0.00 | 0.00 | 0.00 | 19 | 5011.0 |
| 20260509170142 | 36 | 112 | 0.0 | 0.0 | 0.00 | 0.00 | 0.00 | 20 | 5010.9 |
| 20260509165642 | 36 | 135 | 0.0 | 0.0 | 0.00 | 0.00 | 0.00 | 20 | 5011.1 |
| 20260509165142 | 35 | 135 | 0.0 | 0.0 | 0.00 | 0.00 | 0.00 | 20 | 5011.0 |
| 20260509164642 | 35 | 135 | 0.0 | 0.0 | 0.00 | 0.00 | 0.00 | 20 | 5010.9 |
| 20260509164142 | 35 | 67 | 0.0 | 0.0 | 0.00 | 0.00 | 0.00 | 20 | 5011.0 |
| 20260509163644 | 35 | 67 | 0.0 | 0.0 | 0.00 | 0.00 | 0.00 | 20 | 5010.9 |
| 20260509163142 | 35 | 0 | 0.0 | 0.0 | 0.00 | 0.00 | 0.00 | 20 | 5010.9 |
| 20260509162642 | 35 | 67 | 0.0 | 0.0 | 0.00 | 0.00 | 0.00 | 20 | 5011.0 |
| 20260509162142 | 33 | 135 | 0.0 | 0.0 | 0.00 | 0.00 | 0.00 | 21 | 5011.0 |
| 20260509161642 | 33 | 135 | 0.0 | 0.0 | 0.00 | 0.00 | 0.00 | 23 | 5011.2 |
| 20260509161142 | 31 | 135 | 0.0 | 0.0 | 0.00 | 0.00 | 0.00 | 24 | 5011.0 |
| 20260509160642 | 32 | 45 | 0.0 | 0.0 | 0.00 | 0.00 | 0.00 | 22 | 5011.1 |
| 20260509160142 | 33 | 45 | 0.0 | 0.0 | 0.00 | 0.00 | 0.00 | 23 | 5011.0 |
| 20260509155642 | 33 | 45 | 0.0 | 0.0 | 0.00 | 0.00 | 0.00 | 22 | 5011.1 |
| 20260509155142 | 32 | 0 | 0.0 | 0.0 | 0.00 | 0.00 | 0.00 | 23 | 5011.2 |
| 20260509154642 | 31 | 45 | 0.0 | 0.0 | 0.00 | 0.00 | 0.00 | 24 | 5011.0 |
| 20260509154142 | 32 | 67 | 0.0 | 0.0 | 0.00 | 0.00 | 0.00 | 22 | 5011.2 |
| 20260509153642 | 34 | 67 | 0.0 | 0.0 | 0.00 | 0.00 | 0.00 | 21 | 5011.2 |
| 20260509153142 | 35 | 67 | 0.0 | 0.0 | 0.00 | 0.00 | 0.00 | 20 | 5011.2 |
| 20260509152642 | 36 | 67 | 0.0 | 0.0 | 0.00 | 0.00 | 0.00 | 21 | 5011.3 |
| 20260509152142 | 34 | 112 | 0.0 | 0.0 | 0.00 | 0.00 | 0.00 | 21 | 5011.4 |
| 20260509151642 | 34 | 45 | 0.0 | 0.0 | 0.00 | 0.00 | 0.00 | 23 | 5011.3 |
| 20260509151142 | 35 | 247 | 0.0 | 0.0 | 0.00 | 0.00 | 0.00 | 22 | 5011.4 |
| 20260509150642 | 36 | 22 | 0.0 | 0.0 | 0.00 | 0.00 | 0.00 | 22 | 5011.4 |
| 20260509150142 | 34 | 45 | 0.0 | 0.0 | 0.00 | 0.00 | 0.00 | 24 | 5011.5 |
| 20260509145642 | 32 | 112 | 0.0 | 0.0 | 0.00 | 0.00 | 0.00 | 26 | 5011.6 |
| 20260509145142 | 30 | 45 | 0.0 | 0.0 | 0.00 | 0.00 | 0.00 | 27 | 5011.3 |
| 20260509144642 | 29 | 45 | 0.0 | 0.0 | 0.00 | 0.00 | 0.00 | 28 | 5011.3 |
| 20260509144142 | 28 | 67 | 0.0 | 0.0 | 0.00 | 0.00 | 0.00 | 28 | 5011.5 |
| 20260509143642 | 27 | 90 | 0.0 | 0.0 | 0.00 | 0.00 | 0.00 | 30 | 5011.6 |
| 20260509143142 | 28 | 90 | 0.0 | 0.0 | 0.00 | 0.00 | 0.00 | 29 | 5011.6 |
| 20260509142642 | 28 | 45 | 0.0 | 0.0 | 0.00 | 0.00 | 0.00 | 29 | 5011.6 |
| 20260509142142 | 27 | 45 | 0.0 | 0.0 | 0.00 | 0.00 | 0.00 | 30 | 5011.5 |
| 20260509141642 | 27 | 45 | 0.0 | 0.0 | 0.00 | 0.00 | 0.00 | 29 | 5011.6 |
| 20260509141142 | 27 | 45 | 0.0 | 0.0 | 0.00 | 0.00 | 0.00 | 28 | 5011.8 |
| 20260509140645 | 29 | 45 | 0.0 | 0.0 | 0.00 | 0.00 | 0.00 | 26 | 5011.8 |
| 20260509140642 | 29 | 45 | 0.0 | 0.0 | 0.00 | 0.00 | 0.00 | 26 | 5011.8 |
| 20260509140142 | 32 | 45 | 0.0 | 0.0 | 0.00 | 0.00 | 0.00 | 25 | 5011.8 |
| 20260509135642 | 33 | 337 | 0.0 | 0.0 | 0.00 | 0.00 | 0.00 | 23 | 5011.6 |
| 20260509135142 | 34 | 270 | 0.0 | 0.0 | 0.00 | 0.00 | 0.00 | 24 | 5011.8 |
| 20260509134642 | 34 | 45 | 0.0 | 0.0 | 0.00 | 0.00 | 0.00 | 24 | 5011.9 |
| 20260509134142 | 33 | 180 | 0.0 | 0.0 | 0.00 | 0.00 | 0.00 | 25 | 5012.0 |
| 20260509133644 | 32 | 157 | 0.0 | 0.0 | 0.00 | 0.00 | 0.00 | 26 | 5011.9 |
| 20260509133642 | 32 | 157 | 0.0 | 0.0 | 0.00 | 0.00 | 0.00 | 26 | 5011.9 |
| 20260509133142 | 31 | 45 | 0.0 | 0.0 | 0.00 | 0.00 | 0.00 | 26 | 5012.0 |
| 20260509132642 | 31 | 0 | 0.0 | 0.0 | 0.00 | 0.00 | 0.00 | 27 | 5012.1 |
| 20260509132142 | 30 | 157 | 0.0 | 0.0 | 0.00 | 0.00 | 0.00 | 28 | 5012.2 |
| 20260509131642 | 29 | 135 | 0.0 | 0.0 | 0.00 | 0.00 | 0.00 | 28 | 5012.0 |
| 20260509131142 | 28 | 157 | 0.0 | 0.0 | 0.00 | 0.00 | 0.00 | 29 | 5012.1 |
| 20260509130642 | 27 | 135 | 0.0 | 0.0 | 0.00 | 0.00 | 0.00 | 30 | 5012.2 |
| 20260509130142 | 27 | 90 | 0.0 | 0.0 | 0.00 | 0.00 | 0.00 | 29 | 5012.3 |
| 20260509125642 | 29 | 22 | 0.0 | 0.0 | 0.00 | 0.00 | 0.00 | 28 | 5012.1 |
| 20260509125142 | 30 | 0 | 0.0 | 0.0 | 0.00 | 0.00 | 0.00 | 27 | 5012.2 |
| 20260509124642 | 31 | 112 | 0.0 | 0.0 | 0.00 | 0.00 | 0.00 | 26 | 5012.2 |
| 20260509124142 | 30 | 270 | 0.0 | 0.0 | 0.00 | 0.00 | 0.00 | 27 | 5012.3 |
| 20260509123642 | 30 | 112 | 0.0 | 0.0 | 0.00 | 0.00 | 0.00 | 28 | 5012.3 |
| 20260509123142 | 30 | 22 | 0.0 | 0.0 | 0.00 | 0.00 | 0.00 | 28 | 5012.3 |
| 20260509122642 | 30 | 90 | 0.0 | 0.0 | 0.00 | 0.00 | 0.00 | 29 | 5012.5 |
| 20260509122142 | 29 | 135 | 0.0 | 0.0 | 0.00 | 0.00 | 0.00 | 29 | 5012.5 |
| 20260509121642 | 28 | 135 | 0.0 | 0.0 | 0.00 | 0.00 | 0.00 | 30 | 5012.6 |
| 20260509121142 | 28 | 180 | 0.0 | 0.0 | 0.00 | 0.00 | 0.00 | 31 | 5012.7 |
| 20260509120642 | 27 | 135 | 0.0 | 0.0 | 0.00 | 0.00 | 0.00 | 32 | 5012.7 |
| 20260509120142 | 27 | 135 | 0.0 | 0.0 | 0.00 | 0.00 | 0.00 | 32 | 5013.0 |
| 20260509115642 | 27 | 67 | 0.0 | 0.0 | 0.00 | 0.00 | 0.00 | 33 | 5012.9 |
| 20260509115142 | 27 | 90 | 0.0 | 0.0 | 0.00 | 0.00 | 0.00 | 32 | 5012.9 |
| 20260509114643 | 26 | 112 | 0.0 | 0.0 | 0.00 | 0.00 | 0.00 | 33 | 5013.0 |
| 20260509114142 | 26 | 135 | 0.0 | 0.0 | 0.00 | 0.00 | 0.00 | 34 | 5013.0 |
| 20260509113642 | 26 | 135 | 0.0 | 0.0 | 0.00 | 0.00 | 0.00 | 35 | 5013.0 |
| 20260509113142 | 25 | 157 | 0.0 | 0.0 | 0.00 | 0.00 | 0.00 | 36 | 5013.0 |
| 20260509112642 | 25 | 112 | 0.0 | 0.0 | 0.00 | 0.00 | 0.00 | 36 | 5013.1 |
| 20260509112143 | 25 | 135 | 0.0 | 0.0 | 0.00 | 0.00 | 0.00 | 36 | 5013.2 |
| 20260509111642 | 25 | 292 | 0.0 | 0.0 | 0.00 | 0.00 | 0.00 | 37 | 5013.3 |
| 20260509111143 | 24 | 135 | 0.0 | 0.0 | 0.00 | 0.00 | 0.00 | 38 | 5013.4 |
| 20260509110642 | 24 | 135 | 0.0 | 0.0 | 0.00 | 0.00 | 0.00 | 39 | 5013.3 |
| 20260509110143 | 23 | 315 | 0.0 | 0.0 | 0.00 | 0.00 | 0.00 | 39 | 5013.3 |
| 20260509105642 | 23 | 135 | 0.0 | 0.0 | 0.00 | 0.00 | 0.00 | 41 | 5013.5 |
| 20260509105142 | 22 | 112 | 0.0 | 0.0 | 0.00 | 0.00 | 0.00 | 41 | 5013.7 |
| 20260509104643 | 22 | 0 | 0.0 | 0.0 | 0.00 | 0.00 | 0.00 | 42 | 5013.7 |
| 20260509104143 | 22 | 90 | 0.0 | 0.0 | 0.00 | 0.00 | 0.00 | 44 | 5013.8 |